CAPE
0 0 0 0 0 0 0 0 35 11 30 25 15 0 30 0 14 83 63 34 33 50 32 128 154 116 59 20 42 25 79 100 144 327 422 239 339 521 852 876 844 1064 916 718
0 0 0 0 0 0 70 47 65 66 28 7 10 3 18 2 1 55 91 30 29 33 47 89 35 62 140 74 27 0 144 107 164 289 448 275 402 409 905 981 1133 1026 1077 1039
0 0 0 0 0 12 19 0 41 51 49 21 1 0 0 5 5 9 69 72 12 19 27 43 27 62 150 113 29 71 22 85 366 280 416 394 419 492 618 628 752 826 1010 1196
0 0 0 0 0 0 0 185 78 66 61 20 2 0 0 0 0 4 35 57 26 25 44 63 30 20 137 100 17 41 71 145 313 285 237 337 297 318 283 573 620 785 1003 1084
0 0 0 0 0 12 176 127 41 63 33 7 0 0 0 0 1 3 37 42 58 24 37 51 52 48 142 132 99 72 132 270 287 228 175 190 222 171 343 569 654 649 821 968
0 0 0 0 11 90 210 130 95 35 18 0 2 1 3 0 0 5 24 31 40 28 40 52 64 37 93 154 119 102 183 218 209 261 308 179 180 271 478 596 602 645 728 892
0 0 30 443 387 383 194 98 16 3 10 7 1 6 4 7 5 0 13 20 10 19 11 26 42 58 42 97 92 129 185 74 111 142 307 177 251 259 445 546 600 580 625 642
0 0 3 279 167 150 131 56 0 0 27 34 15 0 0 0 0 4 1 44 7 36 62 25 74 91 48 49 61 212 169 149 201 237 289 316 230 89 373 494 469 330 341 448
0 0 0 52 277 157 154 94 34 32 23 14 16 0 0 0 0 0 0 7 3 61 65 50 83 141 124 118 153 186 163 267 270 336 274 235 138 0 258 452 412 314 406 539
0 0 0 0 2 85 24 15 0 27 34 12 11 1 0 0 1 0 0 1 12 28 71 27 28 175 171 249 276 267 227 147 139 249 329 311 186 399 520 547 390 256 500 545
0 0 0 0 0 0 0 0 0 0 63 76 31 5 0 0 0 0 0 2 1 2 14 72 70 55 180 296 347 424 322 259 107 213 581 431 299 442 667 479 261 45 386 270
0 0 0 0 0 0 0 0 0 0 0 2 0 0 10 0 19 2 11 1 0 0 27 85 136 117 80 214 273 499 529 423 281 261 424 392 287 555 460 511 739 515 423 233
0 0 0 0 0 1 9 0 0 0 0 0 0 0 29 13 15 42 5 12 0 20 58 93 159 101 145 84 149 478 581 463 390 314 369 446 381 247 399 364 496 629 431 208
0 0 0 0 0 0 0 3 5 0 0 0 0 0 2 22 0 38 0 29 45 13 50 50 116 135 109 108 246 340 521 515 415 330 552 440 327 366 387 434 539 582 484 446
0 0 0 0 3 6 0 14 9 0 0 0 0 28 66 86 89 125 262 147 166 33 18 36 106 170 180 191 203 331 313 285 250 200 276 505 488 368 301 381 341 529 578 632
0 0 0 0 0 2 0 11 45 0 0 29 241 161 4 47 121 285 516 420 390 165 33 87 121 195 227 270 226 296 287 162 114 69 174 251 290 253 230 207 275 274 232 265
0 0 0 1 0 0 0 0 34 34 100 203 83 32 0 0 30 217 161 219 400 382 277 219 194 157 177 173 63 76 6 36 44 4 53 60 116 43 118 98 142 148 124 22
0 0 0 0 0 1 11 0 15 60 169 143 127 224 144 94 278 274 197 34 138 150 192 136 40 110 43 87 189 195 98 107 105 128 144 149 95 81 60 57 51 50 44 0
0 0 0 25 8 3 35 17 1 3 27 150 64 71 9 0 122 92 65 81 50 20 1 1 10 2 122 168 148 86 34 172 163 127 186 140 73 23 28 10 0 0 2 1
0 0 8 0 13 0 54 0 0 0 0 111 19 28 4 0 0 131 1 1 0 1 0 0 1 2 3 220 177 151 120 136 156 125 102 40 16 8 9 0 0 0 0 0
0 0 0 1 6 4 42 39 10 0 0 11 158 57 16 31 17 1 0 0 0 0 0 1 1 0 2 3 11 58 30 40 13 78 46 22 11 42 6 0 0 0 0 0
0 0 0 0 0 0 83 97 38 47 25 104 257 382 274 150 38 15 0 0 0 1 2 0 0 2 2 1 3 1 0 1 0 0 0 1 16 23 11 0 0 0 0 0
35 12 18 0 0 30 134 115 86 52 135 307 426 429 260 80 51 7 0 0 0 1 2 1 0 0 2 2 2 1 2 0 0 0 0 0 0 0 0 0 0 0 0 0
70 3 6 0 0 58 229 201 127 89 370 393 324 153 70 42 13 0 1 1 0 1 1 1 0 0 0 0 0 0 0 0 0 0 0 0 0 0 0 0 0 0 0 0
158 136 11 35 28 68 171 188 108 71 565 452 452 354 211 115 22 0 0 0 0 0 0 0 0 0 0 0 0 0 0 0 0 0 0 0 0 0 0 0 0 0 0 0
160 67 23 33 70 165 95 6 2 26 367 478 252 253 254 164 34 0 0 0 0 0 0 0 0 0 0 0 0 0 0 0 0 0 0 0 0 0 0 0 0 0 0 0
CIN
0 0 0 0 0 0 0 0 -11 -62 -38 -24 -25 0 -24 0 -62 -44 -38 -24 -23 -39 -85 -91 -95 -87 -83 -72 -48 -80 -41 -33 -30 -30 -36 -41 -22 -30 -30 -27 -32 -28 -33 -42
0 0 0 0 0 0 -14 -18 -4 -10 -22 -25 -34 -57 -48 -60 -29 -57 -61 -44 -30 -62 -74 -85 -89 -86 -83 -83 -57 0 -33 -35 -32 -30 -28 -33 -30 -38 -27 -31 -20 -28 -28 -26
0 0 0 0 0 -19 -32 0 -25 -24 -10 -11 -14 0 0 -82 -93 -90 -104 -60 -44 -67 -88 -100 -97 -87 -76 -81 -73 -84 -18 -36 -25 -28 -36 -34 -44 -34 -19 -19 -26 -21 -29 -29
0 0 0 0 0 0 -6 -68 -67 -12 -22 -8 -21 0 0 0 -10 -63 -64 -70 -50 -81 -88 -100 -91 -76 -80 -89 -37 -41 -72 -39 -32 -35 -22 -20 -27 -31 -45 -26 -28 -27 -28 -34
0 0 0 0 0 -41 -63 -95 -108 -30 -18 -34 0 -7 0 0 -31 -75 -46 -56 -61 -89 -75 -92 -84 -98 -89 -87 -68 -46 -47 -34 -34 -38 -42 -34 -24 -37 -36 -28 -29 -27 -23 -21
0 0 0 -2 -30 -56 -150 -125 -134 -49 -19 -3 -15 -8 -22 0 0 -50 -72 -68 -58 -85 -56 -83 -98 -102 -98 -95 -77 -69 -52 -58 -48 -34 -33 -42 -48 -32 -25 -27 -30 -29 -28 -26
0 0 -52 -58 -86 -107 -105 -62 -36 -4 -13 -13 -30 -15 -22 -30 -52 0 -70 -61 -71 -65 -43 -69 -76 -95 -98 -88 -76 -71 -68 -85 -68 -57 -37 -47 -40 -49 -32 -27 -26 -25 -25 -26
0 0 -5 -69 -39 -51 -64 -44 -3 0 -8 -16 -49 -1 0 0 0 -91 -8 -55 -76 -55 -46 -58 -54 -89 -84 -100 -98 -71 -82 -94 -84 -66 -56 -50 -39 -69 -48 -40 -40 -45 -47 -40
0 -2 -4 -56 -75 -82 -62 -55 -52 -37 -83 -39 -75 -16 0 0 0 0 0 -59 -76 -52 -39 -69 -77 -80 -79 -96 -109 -102 -103 -82 -80 -61 -68 -72 -74 0 -55 -43 -53 -58 -60 -47
0 0 0 0 -8 -41 -16 -29 -7 -48 -7 -14 -72 -35 0 0 -80 0 0 -62 -80 -70 -54 -92 -64 -71 -82 -90 -109 -103 -104 -111 -118 -78 -64 -68 -82 -62 -42 -42 -57 -77 -59 -48
0 0 0 0 0 0 0 0 0 0 -36 -12 -23 -35 0 0 0 -10 0 -126 -8 -31 -59 -60 -75 -54 -75 -104 -97 -85 -95 -117 -129 -118 -61 -60 -68 -51 -49 -40 -68 -44 -59 -69
0 0 0 0 0 0 0 0 0 0 0 -1 0 0 -115 0 -153 -33 -105 -75 -166 0 -65 -70 -68 -80 -95 -112 -119 -75 -77 -113 -114 -104 -84 -77 -95 -41 -51 -52 -37 -54 -56 -79
0 0 0 0 -9 -30 -58 0 0 0 0 0 0 0 -162 -139 -80 -155 -132 -132 -42 -132 -100 -78 -49 -61 -84 -137 -124 -69 -70 -97 -93 -83 -58 -40 -72 -77 -46 -53 -47 -47 -61 -83
0 0 0 0 0 0 -41 -66 -108 0 0 0 0 0 -70 -139 0 -175 -87 -127 -93 -169 -148 -131 -109 -98 -155 -164 -135 -92 -77 -89 -77 -58 -31 -33 -45 -36 -44 -36 -28 -33 -40 -39
0 0 0 0 -64 -110 -21 -98 -94 0 0 0 0 -96 -259 -254 -148 -129 -135 -96 -109 -175 -154 -152 -117 -97 -115 -126 -124 -106 -110 -125 -114 -73 -56 -35 -51 -52 -47 -49 -50 -31 -27 -20
0 0 0 -5 0 -83 -18 -115 -140 0 -3 -21 -116 -148 -336 -254 -221 -146 -132 -120 -168 -208 -174 -123 -127 -113 -108 -126 -140 -101 -93 -127 -124 -106 -82 -83 -82 -104 -65 -60 -56 -60 -60 -44
0 0 0 -3 0 0 0 -22 -125 -169 -160 -122 -128 -144 0 0 -163 -146 -187 -180 -152 -190 -224 -195 -142 -140 -174 -159 -152 -112 -138 -209 -98 -105 -97 -65 -99 -123 -96 -71 -91 -90 -73 -114
0 0 0 -2 0 -9 -126 0 -71 -122 -127 -155 -177 -111 -137 -142 -69 -121 -171 -277 -264 -272 -208 -242 -241 -72 -154 -167 -67 -109 -104 -52 -19 -55 -58 -77 -157 -122 -111 -128 -135 -107 -89 0
0 0 0 -18 -48 -10 -114 -162 -109 -59 -134 -115 -164 -171 -208 0 -101 -141 -167 -216 -237 -279 0 0 -44 -32 -25 -33 -60 -34 -33 -35 -58 -83 -89 -92 -114 -105 -128 -190 0 0 0 0
0 0 -54 0 -21 0 -72 0 0 0 0 -130 -183 -93 -155 0 0 -149 0 0 0 0 0 0 0 0 -31 -17 -17 -20 -27 -22 -49 -100 -85 -86 -84 -94 -127 0 0 0 0 0
0 0 0 -3 -39 -54 -118 -157 -208 0 0 -160 -79 -87 -107 -104 -150 -51 0 0 0 0 0 0 0 0 0 0 -107 -66 -107 -90 -73 -87 -72 -55 -84 -72 -151 0 0 0 0 0
0 0 -20 0 0 0 -112 -105 -79 -113 -127 -94 -51 -30 -57 -148 -274 -274 0 0 0 0 0 0 0 0 0 0 0 0 0 0 0 0 0 0 -139 -147 -219 0 0 0 0 0
-63 -44 -60 0 0 -124 -117 -85 -133 -118 -41 -20 -25 -52 -73 -128 -177 -253 0 0 0 0 0 0 0 0 0 0 0 0 0 0 0 0 0 0 0 0 0 0 0 0 0 0
-70 -25 -104 0 0 -100 -58 -93 -104 -79 -28 -38 -44 -59 -119 -119 -186 0 0 0 0 0 0 0 0 0 0 0 0 0 0 0 0 0 0 0 0 0 0 0 0 0 0 0
-29 -46 -79 -106 -127 -98 -81 -84 -73 -83 -21 -18 -35 -40 -67 -112 -169 0 0 0 0 0 0 0 0 0 0 0 0 0 0 0 0 0 0 0 0 0 0 0 0 0 0 0
-41 -68 -86 -66 -67 -42 -65 -78 -13 -79 -34 -23 -21 -38 -42 -51 -113 0 0 0 0 0 0 0 0 0 0 0 0 0 0 0 0 0 0 0 0 0 0 0 0 0 0 0
Wind_Speed
23 22 25 26 22 21 19 19 16 14 13 15 20 31 27 19 18 24 23 8 13 14 14 19 23 24 23 25 26 26 29 30 30 28 28 29 29 29 27 25 25 25 26 24
25 32 29 24 24 23 15 15 15 16 13 19 19 29 39 29 23 25 22 23 16 7 13 14 20 19 22 23 25 25 28 27 28 29 28 28 28 27 26 25 24 25 25 25
27 23 26 26 28 21 19 21 21 19 17 19 17 22 30 32 25 25 25 25 17 12 13 14 17 17 17 20 23 26 27 28 29 27 26 26 25 26 26 24 25 25 25 23
24 30 28 26 32 25 25 15 12 17 16 21 18 21 26 40 35 29 27 25 26 14 13 11 10 14 15 20 25 22 28 25 25 26 26 25 27 26 25 24 25 25 23 22
22 23 23 26 32 20 19 11 11 14 17 18 20 20 21 26 44 40 33 28 26 24 13 12 12 15 15 17 26 23 23 26 18 28 26 24 24 25 25 24 24 24 23 21
28 27 21 25 17 14 10 7 11 12 17 22 19 20 19 17 30 43 36 31 33 25 16 12 10 10 10 11 21 20 19 24 26 27 28 28 24 26 24 25 25 24 22 22
19 23 11 2 3 8 11 13 17 19 21 22 20 21 26 23 25 34 40 29 26 28 22 15 13 10 9 11 16 18 20 21 25 24 28 27 23 25 25 25 22 23 23 23
19 20 10 12 11 17 16 18 18 23 19 18 19 18 25 31 31 34 34 27 31 34 31 20 13 12 13 13 16 17 18 20 19 21 24 26 26 24 25 21 25 25 25 25
18 19 18 13 9 7 21 24 18 17 18 21 19 22 25 23 24 19 25 26 32 32 32 28 19 13 14 12 16 17 13 18 16 15 21 22 23 23 23 26 8 25 25 25
16 20 18 23 13 19 16 14 20 22 22 25 22 21 18 17 17 10 13 26 31 37 29 35 25 14 14 12 10 11 9 15 18 13 15 21 18 19 21 7 14 17 18 16
14 14 19 15 17 21 23 23 18 17 19 22 21 23 16 19 10 7 3 20 39 41 36 38 29 26 18 12 11 11 9 8 6 10 7 10 19 30 10 5 4 10 4 5
17 14 17 16 14 15 16 18 19 26 26 22 23 24 22 14 12 10 11 19 30 27 38 39 31 22 23 18 11 12 12 8 6 6 6 6 8 6 20 7 4 6 3 6
17 16 16 15 15 15 12 19 18 18 20 23 26 25 23 10 4 7 6 26 31 16 23 27 28 24 21 17 20 16 12 12 11 10 9 8 7 8 10 17 14 13 9 8
16 14 14 17 19 21 21 19 16 16 23 29 28 30 23 11 4 6 10 21 27 27 15 21 21 24 23 14 16 14 15 12 11 14 12 9 12 10 12 16 16 14 12 12
15 16 17 15 14 11 14 16 15 15 19 23 29 24 20 18 15 16 24 24 19 5 8 14 17 23 21 15 16 15 13 17 16 15 17 16 15 17 18 16 18 17 14 12
17 17 17 17 13 12 14 15 16 16 20 19 19 18 20 15 14 16 17 10 12 5 11 17 13 14 18 18 15 13 11 28 22 20 16 17 18 18 25 25 21 19 17 14
17 15 18 20 22 19 22 20 16 16 18 18 19 21 17 15 15 18 17 14 11 7 9 10 11 14 14 14 17 17 12 20 17 16 20 23 21 24 27 28 28 29 23 16
16 17 17 20 21 25 17 17 16 15 17 17 16 18 16 15 15 15 15 13 13 15 16 14 20 20 20 18 17 14 15 14 14 11 14 19 15 17 21 21 24 27 19 15
17 14 16 18 18 18 20 21 20 20 20 19 18 19 17 20 16 17 17 16 15 15 16 15 16 22 20 12 12 13 14 15 17 12 9 5 5 11 15 17 18 19 15 11
16 15 14 16 19 23 17 19 21 22 27 21 19 21 21 21 22 20 19 18 17 16 16 15 16 17 17 10 5 8 18 16 12 7 6 6 6 7 9 9 10 12 11 8
17 17 15 17 19 19 17 18 17 24 24 22 21 23 22 22 20 16 16 17 16 16 16 15 14 16 16 13 3 3 6 9 12 7 6 7 7 7 9 9 8 9 8 7
15 15 15 16 18 20 15 15 17 18 20 22 19 20 20 16 14 15 17 17 17 16 15 14 13 13 13 11 9 7 6 11 10 7 6 7 9 10 6 6 7 8 7 6
17 13 14 15 16 12 13 11 13 12 15 17 18 17 16 15 16 18 17 18 17 15 15 14 11 12 11 10 8 7 10 8 9 9 9 8 7 7 8 7 7 8 7 7
15 12 15 15 14 12 10 9 12 14 12 13 15 16 14 15 13 15 16 18 17 17 15 13 11 10 11 10 9 9 9 9 8 8 10 10 10 10 11 12 13 12 11 9
12 11 12 17 14 11 11 14 11 13 12 13 14 15 12 12 14 14 15 14 12 12 12 11 11 10 8 9 10 11 10 9 9 10 9 10 10 11 10 12 14 14 14 12
11 12 11 14 5 9 6 8 13 14 12 12 12 13 13 12 12 11 10 9 10 9 10 9 9 8 11 10 12 12 12 11 10 10 10 10 9 10 11 11 12 14 14 13
Wind_Direction
244 249 247 245 252 266 275 287 272 266 307 268 275 244 238 248 245 237 234 204 148 135 125 129 127 124 118 126 128 124 133 138 143 161 151 146 146 150 157 154 160 166 144 153
249 240 243 248 250 258 272 273 276 283 298 285 281 251 231 241 244 240 240 233 156 172 133 130 126 122 127 128 130 128 141 139 144 150 165 166 148 155 155 164 159 160 144 151
243 243 243 243 243 253 262 269 262 280 274 282 286 274 242 241 247 245 240 233 219 162 146 141 132 128 123 127 133 134 140 139 149 148 159 176 180 166 155 168 157 160 150 149
249 243 242 243 240 251 255 282 288 285 274 277 280 273 252 235 235 238 237 232 232 220 163 155 143 133 129 132 136 132 141 136 137 145 148 143 152 152 158 152 163 157 152 148
241 243 242 245 240 252 253 269 301 287 274 277 265 279 265 246 232 234 237 235 231 233 181 169 158 142 135 131 144 136 139 147 125 156 156 147 146 163 180 169 163 165 158 148
243 250 262 259 263 239 221 275 315 299 281 264 279 275 272 269 244 237 237 236 229 235 219 191 180 155 144 136 141 138 138 148 151 159 191 177 160 174 191 180 168 170 168 174
259 248 280 295 211 226 240 266 267 271 268 265 284 279 251 265 264 246 233 231 234 232 230 223 195 200 165 149 143 140 141 146 152 153 177 168 153 167 191 171 150 168 172 173
252 243 253 251 246 247 250 254 261 260 270 265 259 301 283 241 271 250 234 227 231 233 231 231 202 202 173 158 149 147 144 147 146 150 156 165 172 166 178 150 185 202 199 205
261 253 266 260 279 246 253 254 272 276 278 258 276 265 273 258 278 265 236 220 223 231 233 231 232 205 183 172 160 156 151 148 146 148 155 160 163 165 164 181 309 201 219 217
266 262 268 271 263 256 266 276 267 269 267 253 263 275 279 257 281 293 237 218 226 230 240 232 231 211 199 193 180 169 165 150 153 152 154 161 154 151 157 99 141 154 242 275
277 278 271 272 268 254 260 266 278 284 278 264 270 274 197 193 84 298 170 220 223 227 235 231 238 233 231 226 207 198 185 177 158 158 165 155 161 191 141 116 83 123 6 352
294 279 272 274 279 294 288 278 280 264 262 274 273 269 305 152 118 87 257 183 232 229 236 234 238 234 237 239 216 192 237 214 206 244 247 186 162 162 167 141 109 104 56 343
295 286 273 268 276 300 308 302 298 280 279 270 265 272 316 320 1 78 141 165 175 221 236 235 234 237 232 238 240 238 237 245 248 255 254 247 248 264 272 269 281 289 306 317
298 292 282 270 280 280 292 308 313 294 273 272 270 280 296 312 334 3 112 216 179 174 209 222 222 235 237 238 231 227 239 241 246 259 255 245 261 271 275 276 279 285 295 297
305 285 285 297 316 333 316 307 317 301 291 280 276 286 298 296 289 287 251 237 164 183 195 210 216 234 237 226 235 233 244 248 256 258 260 259 264 267 274 281 280 282 288 293
312 290 289 280 309 325 311 313 310 307 305 296 291 288 309 313 308 297 296 308 289 278 260 246 192 214 230 232 228 200 228 248 258 259 252 267 265 276 267 275 279 287 284 293
319 304 294 277 287 287 282 299 311 304 310 302 290 296 306 307 314 299 301 302 308 310 286 269 252 225 221 229 239 236 228 254 241 253 262 269 269 268 272 270 274 276 282 284
323 311 306 291 290 274 284 297 304 313 303 313 306 301 307 308 315 320 324 324 314 304 297 292 269 262 253 254 251 243 236 239 233 256 259 265 277 274 277 288 289 287 288 281
329 326 308 297 294 290 287 287 288 288 289 297 301 297 303 298 301 317 319 325 319 310 302 300 286 273 259 253 244 243 234 253 245 242 257 263 291 290 297 304 311 312 298 287
322 324 310 304 290 284 298 295 289 285 277 293 290 288 286 301 287 296 310 316 312 314 309 306 294 285 279 287 305 259 249 244 242 238 260 283 308 314 317 332 351 3 353 326
318 309 305 305 298 300 316 313 306 274 281 286 284 280 283 292 294 304 311 313 320 316 317 305 307 291 303 298 267 292 266 265 266 274 292 302 298 304 299 320 345 359 5 336
320 321 312 315 303 298 327 327 301 293 288 283 294 290 294 299 302 302 301 306 310 317 319 316 312 313 322 314 297 292 306 294 298 306 331 322 306 292 328 349 353 357 7 12
319 334 329 330 317 351 330 4 26 346 313 303 297 306 309 306 292 292 304 298 303 308 318 321 318 314 325 329 322 320 307 310 312 316 325 332 339 332 320 317 318 326 332 336
325 336 327 332 335 349 350 357 8 3 358 349 326 320 328 306 311 310 299 298 299 298 311 315 321 319 316 327 331 327 308 308 321 326 317 314 310 305 304 303 302 305 309 313
345 350 345 319 324 340 334 314 336 0 15 2 349 340 340 346 324 323 311 313 313 315 321 313 315 323 326 322 316 312 319 319 313 313 312 308 310 310 310 312 310 306 306 304
357 342 339 328 58 4 45 3 341 336 340 350 347 343 343 345 342 341 337 337 326 323 333 336 316 322 296 312 301 307 312 315 315 308 306 310 313 313 312 312 309 315 314 318